linux/Documentation/devicetree/bindings/mfd/
<<
>>
Prefs
88pm860x.txt 2166 2021-08-29 15:04:50 -0700
ab8500.txt 8073 2018-02-07 19:14:15
ac100.txt 1615 2018-02-07 19:14:15
act8945a.txt 2172 2018-02-07 19:14:15
altera-a10sr.txt 1808 2018-02-07 19:14:15
arizona.txt 3399 2018-02-07 19:14:15
as3711.txt 2425 2021-08-29 15:04:50 -0700
as3722.txt 6617 2018-02-07 19:14:15
aspeed-gfx.txt 483 2021-08-29 15:04:50 -0700
aspeed-lpc.txt 4484 2018-02-07 19:14:15
aspeed-scu.txt 763 2018-02-07 19:14:15
atmel-flexcom.txt 1818 2021-08-29 15:04:50 -0700
atmel-gpbr.txt 374 2018-02-07 19:14:15
atmel-hlcdc.txt 1557 2018-02-07 19:14:15
atmel-matrix.txt 756 2018-02-07 19:14:15
atmel-smc.txt 580 2018-02-07 19:14:15
axp20x.txt 9532 2018-02-07 19:14:15
bd9571mwv.txt 1704 2018-02-07 19:14:15
bfticu.txt 894 2018-02-07 19:14:15
brcm,bcm59056.txt 1030 2021-08-29 15:04:50 -0700
brcm,iproc-cdru.txt 488 2021-08-29 15:04:50 -0700
brcm,iproc-mhb.txt 571 2021-08-29 15:04:50 -0700
cros-ec.txt 2382 2018-02-07 19:14:15
da9052-i2c.txt 1787 2021-08-29 15:04:50 -0700
da9055.txt 2104 2018-02-07 19:14:15
da9062.txt 3254 2018-02-07 19:14:15
da9063.txt 3306 2018-02-07 19:14:15
da9150.txt 1556 2018-02-07 19:14:15
fsl-imx25-tsadc.txt 1331 2021-08-29 15:04:50 -0700
hi6421.txt 1116 2021-08-29 15:04:50 -0700
hisilicon,hi655x.txt 1188 2021-08-29 15:04:50 -0700
lp3943.txt 686 2021-08-29 15:04:50 -0700
lp873x.txt 1816 2021-08-29 15:04:50 -0700
lp87565.txt 1130 2018-02-07 19:14:15
max14577.txt 3652 2018-02-07 19:14:15
max77620.txt 5933 2018-02-07 19:14:15
max77686.txt 978 2018-02-07 19:14:15
max77693.txt 6873 2018-02-07 19:14:15
max77802.txt 910 2018-02-07 19:14:15
max8925.txt 1563 2021-08-29 15:04:50 -0700
max8998.txt 4456 2018-02-07 19:14:15
mc13xxx.txt 5668 2018-02-07 19:14:15
mfd.txt 1889 2021-08-29 15:04:50 -0700
motorola-cpcap.txt 969 2018-02-07 19:14:15
mt6397.txt 1967 2018-02-07 19:14:15
mxs-lradc.txt 1650 2021-08-29 15:04:50 -0700
omap-usb-host.txt 3202 2021-08-29 15:04:50 -0700
omap-usb-tll.txt 743 2021-08-29 15:04:50 -0700
palmas.txt 1183 2018-02-07 19:14:15
qcom,spmi-pmic.txt 2744 2018-02-07 19:14:15
qcom,tcsr.txt 735 2021-08-29 15:04:50 -0700
qcom-pm8xxx.txt 2365 2018-02-07 19:14:15
qcom-rpm.txt 7534 2018-02-07 19:14:15
qriox.txt 442 2021-08-29 15:04:50 -0700
retu.txt 740 2018-02-07 19:14:15
rk808.txt 6902 2018-02-07 19:14:15
rn5t618.txt 1281 2018-02-07 19:14:15
samsung,exynos5433-lpass.txt 2043 2018-02-07 19:14:15
samsung,sec-core.txt 2924 2018-02-07 19:14:15
sky81452.txt 792 2021-08-29 15:04:50 -0700
sprd,sc27xx-pmic.txt 1493 2021-08-29 15:04:50 -0700
stm32-lptimer.txt 1218 2018-02-07 19:14:15
stm32-timers.txt 1363 2018-02-07 19:14:15
stmpe.txt 1057 2018-02-07 19:14:15
sun4i-gpadc.txt 1748 2018-02-07 19:14:15
sun6i-prcm.txt 1522 2018-02-07 19:14:15
syscon.txt 893 2018-02-07 19:14:15
tc3589x.txt 3302 2018-02-07 19:14:15
ti-keystone-devctrl.txt 525 2021-08-29 15:04:50 -0700
ti-lmu.txt 4827 2018-02-07 19:14:15
tps6105x.txt 376 2018-02-07 19:14:15
tps6507x.txt 2774 2021-08-29 15:04:50 -0700
tps65086.txt 2191 2018-02-07 19:14:15
tps65910.txt 6703 2018-02-07 19:14:15
tps65912.txt 1682 2018-02-07 19:14:15
twl-familly.txt 1423 2018-02-07 19:14:15
twl4030-audio.txt 1278 2021-08-29 15:04:50 -0700
twl4030-power.txt 1504 2021-08-29 15:04:50 -0700
twl6040.txt 2225 2018-02-07 19:14:15
wm831x.txt 2123 2018-02-07 19:14:15
zii,rave-sp.txt 1002 2018-02-07 19:14:15